Regional Weather Roundup
Issued by NWS

Home | Current Version | Previous Version | Text Only | Print | Product List | Glossary Off
Versions: 1 2 3 4 5 6 7 8 9 10 11 12 13 14 15 16 17 18 19 20 21 22 23 24 25 26 27 28 29 30 31 32 33 34 35 36 37 38 39 40 41 42 43 44 45 46 47 48 49 50

249
ASUS43 KLMK 230410
RWRKY
KENTUCKY REGIONAL WEATHER ROUNDUP
NATIONAL WEATHER SERVICE LOUISVILLE KY
1200 AM EDT TUE MAY 23 2017

NOTE "FAIR" INDICATES FEW OR NO CLOUDS BELOW 12,000 FEET
WITH NO SIGNIFICANT WEATHER AND/OR OBSTRUCTIONS TO VISIBILITY.

KYZ001>023-026-027-061>063-070>075-230500-
WESTERN AND SOUTH CENTRAL KENTUCKY

CITY           SKY/WX    TMP DP  RH WIND       PRES   REMARKS
PADUCAH        CLOUDY    64  51  62 SE3       29.94F
HENDERSON      CLOUDY    64  52  64 E5        29.96F
OWENSBORO      MOCLDY    64  53  67 CALM      29.98F
HOPKINSVILLE   CLOUDY    65  54  66 E5        29.95F
BOWLING GREEN  CLOUDY    63  56  78 NE5       29.97F
GLASGOW        CLOUDY    61  54  77 NE5       29.97F
$$

KYZ024-025-028>034-038-045-046-053-230500-
NORTH CENTRAL KENTUCKY

CITY           SKY/WX    TMP DP  RH WIND       PRES   REMARKS
LOUISVILLE/SDF CLOUDY    63  50  62 SE3       29.98F
LOUISVILLE/LOU CLOUDY    63  51  65 CALM      29.99F
FORT KNOX      CLOUDY    57  54  89 CALM      29.97F
$$

KYZ035>037-039>044-047>052-055>060-089>105-230500-
NORTHEAST KENTUCKY

CITY           SKY/WX    TMP DP  RH WIND       PRES   REMARKS
LEXINGTON      CLOUDY    59  49  69 E6        30.00F
COVINGTON      CLOUDY    56  47  71 CALM      30.00F
FRANKFORT      CLOUDY    58  51  78 CALM      29.99F
$$

KYZ054-064>069-076>088-106>120-230500-
SOUTHEAST KENTUCKY

CITY           SKY/WX    TMP DP  RH WIND       PRES   REMARKS
JACKSON        CLOUDY    58  51  78 CALM      30.00F
LONDON         CLOUDY    59  51  75 NE5       29.99S
SOMERSET       CLOUDY    57  52  82 E3        30.00F
MIDDLESBORO    CLOUDY    59  56  90 CALM      29.99S
MONTICELLO     CLOUDY    59  56  89 VRB5      30.00F
$$





USA.gov is the U.S. government's official web portal to all federal, state and local government web resources and services.